Weather History for NFFN - November, 2012

Change the Weather History Date:

Friday, November 16, 2012

  Actual Average Record
Temperature  
Mean Temperature 80 °F -  
Max Temperature 87 °F 85 °F 91 °F (1997)
Min Temperature 73 °F 71 °F 69 °F (2003)
Cooling Degree Days 15    
Growing Degree Days 30 (Base 50)    
Moisture  
Dew Point 69 °F    
Average Humidity 67    
Maximum Humidity 83    
Minimum Humidity 49    
Precipitation  
Precipitation 0.00 in 0.20 in - ()
Sea Level Pressure  
Sea Level Pressure 29.89 in    
Wind  
Wind Speed 7 mph ()    
Max Wind Speed 14 mph    
Max Gust Speed -    
Visibility 12.0 miles    
Events      
Averages and records for this station are not official NWS values.
T = Trace of Precipitation, MM = Missing Value Source: Averaged Metar Reports

Daily Weather History Graph

Daily Weather History Graph

Search for Another Location

Airport or City:

Trip Planner

Search our weather history database for the weather conditions in past years. The results will help you decide how hot, cold, wet, or windy it might be!

Date:

Astronomy

Nov. 16, 2012 Rise Set
Actual Time 6:26 AM FJST 7:23 PM FJST
Civil Twilight 6:03 AM FJST 7:47 PM FJST
Nautical Twilight 5:35 AM FJST 8:14 PM FJST
Astronomical Twilight 5:07 AM FJST 8:42 PM FJST
Moon 8:20 AM FJST (11/16) 9:48 PM FJST (11/16)
Length of Visible Light 13h 44m
Length of Day
12h 57m
Waxing Crescent, 6% of the Moon is Illuminated
Nov 16
Waxing Crescent
Nov 21
First Quarter
Nov 29
Full
Dec 7
Last Quarter
Dec 13
New

Hourly Weather History & Observations

Time (FJST) Temp. Heat Index Dew Point Humidity Pressure Visibility Wind Dir Wind Speed Gust Speed Precip Events Conditions
12:00 AM 77.0 °F - 68.0 °F 74% 29.95 in 24.9 mi SE 9.2 mph - N/A   Mostly Cloudy
1:00 AM 77 °F - 66 °F 60% 29.94 in 12 mi ESE 11.5 mph - -   Partly Cloudy
1:00 AM 77.0 °F - 66.2 °F 69% 29.92 in 24.9 mi ESE 11.5 mph - N/A   Scattered Clouds
2:00 AM 77.0 °F - 66.2 °F 69% 29.92 in 28.0 mi SE 9.2 mph - N/A   Scattered Clouds
3:00 AM 75.2 °F - 66.2 °F 73% 29.89 in 24.9 mi SE 9.2 mph - N/A   Mostly Cloudy
4:00 AM 76 °F - 67 °F 68% 29.89 in 12 mi SE 10.4 mph - -   Partly Cloudy
4:00 AM 77.0 °F - 68.0 °F 74% 29.89 in 24.9 mi SE 10.4 mph - N/A   Mostly Cloudy
5:00 AM 75.2 °F - 68.0 °F 78% 29.89 in 24.9 mi ESE 9.2 mph - N/A   Mostly Cloudy
6:00 AM 73.4 °F - 68.0 °F 83% 29.89 in 24.9 mi Calm Calm - N/A   Mostly Cloudy
7:00 AM 74 °F - 68 °F 77% 29.91 in 31 mi Calm Calm - -   Partly Cloudy
7:00 AM 73.4 °F - 68.0 °F 83% 29.89 in 31.1 mi Calm Calm - N/A   Mostly Cloudy
8:00 AM 75.2 °F - 68.0 °F 78% 29.92 in 31.1 mi SSE 6.9 mph - N/A   Mostly Cloudy
9:00 AM 78.8 °F - 69.8 °F 74% 29.89 in 31.1 mi South 9.2 mph - N/A   Mostly Cloudy
10:00 AM 82 °F - 68 °F 53% 29.84 in 31 mi SE 6.9 mph - -   Partly Cloudy
10:00 AM 82.4 °F 85.4 °F 68.0 °F 62% 29.92 in 31.1 mi SE 6.9 mph - N/A   Mostly Cloudy
11:00 AM 84.2 °F 87.3 °F 68.0 °F 58% 29.92 in 31.1 mi ESE 6.9 mph - N/A   Mostly Cloudy
12:00 PM 84.2 °F 88.4 °F 69.8 °F 62% 29.89 in 31.1 mi SE 6.9 mph - N/A   Mostly Cloudy
1:00 PM 87 °F - 71 °F 49% 29.90 in 31 mi ESE 4.6 mph - -   Partly Cloudy
1:00 PM 87.8 °F 93.8 °F 71.6 °F 58% 29.89 in 31.1 mi ESE 4.6 mph - N/A   Mostly Cloudy
2:00 PM 87.8 °F 92.6 °F 69.8 °F 55% 29.86 in 31.1 mi ESE 10.4 mph - N/A   Mostly Cloudy
3:00 PM 87.8 °F 92.6 °F 69.8 °F 55% 29.86 in 31.1 mi East 13.8 mph - N/A   Mostly Cloudy
4:00 PM 85 °F - 73 °F 61% 29.85 in 31 mi WNW 6.9 mph - -   Partly Cloudy
4:00 PM 86.0 °F 93.4 °F 73.4 °F 66% 29.83 in 31.1 mi WNW 6.9 mph - N/A   Mostly Cloudy
5:00 PM 84.2 °F 89.6 °F 71.6 °F 66% 29.83 in 31.1 mi WNW 9.2 mph - N/A   Mostly Cloudy
6:00 PM 84.2 °F 89.6 °F 71.6 °F 66% 29.83 in 31.1 mi West 9.2 mph - N/A   Mostly Cloudy
7:00 PM 82 °F - 71 °F 61% 29.87 in 31 mi WNW 6.9 mph - -   Partly Cloudy
7:00 PM 82.4 °F 87.2 °F 71.6 °F 70% 29.86 in 31.1 mi WNW 6.9 mph - N/A   Mostly Cloudy
8:00 PM 80.6 °F 84.6 °F 71.6 °F 74% 29.89 in 31.1 mi West 5.8 mph - N/A   Scattered Clouds
9:00 PM 78.8 °F - 68.0 °F 69% 29.92 in 31.1 mi South 5.8 mph - N/A   Scattered Clouds
10:00 PM 78 °F - 68 °F 65% 29.93 in 31 mi SE 6.9 mph - -   Partly Cloudy
10:00 PM 78.8 °F - 68.0 °F 69% 29.92 in 31.1 mi SE 6.9 mph - N/A   Scattered Clouds
11:00 PM 77.0 °F - 69.8 °F 78% 29.92 in 24.9 mi SE 8.1 mph - N/A   Scattered Clouds